[[{"header":{"parameterUnit":"m.s-1","parameterCategory":1,"la1":30.2991,"la2":30.254,"lo1":-89.0895,"lo2":-89.0444,"dy":0.0017,"dx":0.0017,"nx":28,"ny":28,"refTime":"2025-04-13T21:00:00:Z","depth":0,"parameterNumber":2,"parameterNumberName":"U-component_of_WINDS"},"data":[0,0,0,0,0,0,0,0,0,0,0,0,0,0,0,0,0,0,0,0,0,0,0,0,0,0,0,0,0,0,0,0,0,0,0,0,0,0,0,0,0,0,0,0,0,0,0,0,0,0,0,0,0,0,0,0,0,0,-0.7956,-0.7955,0,-0.79,-0.79,-0.7899,-0.7887,-0.7888,-0.7888,-0.7889,-0.7834,-0.7832,-0.783,0,0,0,0,0,0,0,0,0,0,0,0,0,-0.8054,-0.8052,-0.7956,-0.7955,-0.7955,-0.79,-0.79,-0.7899,-0.7887,-0.7888,-0.7888,-0.7889,-0.7835,-0.7832,-0.783,0,0,0,0,0,0,0,0,0,0,0,0,0,-0.8006,-0.8052,-0.7956,-0.7942,-0.794,-0.7901,-0.79,-0.7899,-0.7887,-0.7888,-0.7888,-0.7889,-0.7835,-0.7833,-0.783,-0.7801,0,0,-0.7822,-0.782,0,0,0,0,0,0,0,0,-0.8009,-0.8003,-0.7945,-0.7943,-0.7941,-0.7901,-0.7914,-0.7866,-0.7887,-0.7907,-0.7889,-0.7889,-0.7856,-0.7852,-0.784,-0.7798,-0.7796,-0.7821,-0.782,-0.7819,-0.7818,0,0,0,0,0,0,0,-0.8012,-0.8005,-0.7934,-0.7944,-0.7942,-0.7939,-0.7933,-0.7905,-0.7879,-0.7906,-0.7905,-0.7898,-0.7855,-0.7843,-0.7839,-0.7795,-0.7821,-0.7819,-0.7817,-0.7816,-0.7726,-0.7725,0,0,0,0,0,0,-0.8018,-0.8008,-0.7936,-0.7932,-0.7977,-0.7937,-0.793,-0.7913,-0.7879,-0.7875,-0.7898,-0.7898,-0.7847,-0.7842,-0.7837,-0.7799,-0.7819,-0.7816,-0.7814,-0.7727,-0.7726,-0.7725,0,0,0,0,0,0,-0.802,-0.8012,-0.7938,-0.797,-0.796,-0.7935,-0.7916,-0.7912,-0.7899,-0.7873,-0.7869,-0.7889,-0.7847,-0.7841,-0.7809,-0.7797,-0.7815,-0.7812,-0.7728,-0.7726,-0.7725,-0.7725,0,0,0,0,0,0,-0.8023,-0.8012,-0.8001,-0.797,-0.7959,-0.7911,-0.7915,-0.7911,-0.7894,-0.7894,-0.7864,-0.786,-0.7847,-0.7814,-0.7807,-0.7794,-0.781,-0.7729,-0.7727,-0.7726,-0.7726,-0.7724,-0.7723,0,0,0,0,0,-0.8027,-0.8004,-0.8,-0.7991,-0.7943,-0.791,-0.7904,-0.7889,-0.7894,-0.7882,-0.7865,-0.7861,-0.78,-0.7811,-0.7803,-0.7789,-0.7729,-0.7728,-0.7726,-0.7727,-0.7725,-0.7723,0,0,0,0,0,0,-0.8035,-0.7999,-0.7995,-0.7961,-0.7939,-0.7908,-0.7893,-0.7887,-0.7864,-0.7865,-0.7848,-0.7841,-0.7811,-0.7797,-0.7809,-0.7759,-0.7765,-0.7762,-0.7768,-0.7766,-0.7764,-0.7768,-0.7808,0,0,0,0,0,-0.8033,-0.8008,-0.7979,-0.7952,-0.7941,-0.7919,-0.7904,-0.7894,-0.7871,-0.7861,-0.7842,-0.782,-0.7796,-0.778,-0.7757,-0.7724,-0.7718,-0.7711,-0.7709,-0.7708,-0.7705,-0.7686,-0.7683,-0.7719,-0.7719,-0.772,0,0,-0.8029,-0.8006,-0.7992,-0.7953,-0.7935,-0.791,-0.7911,-0.7885,-0.7867,-0.7858,-0.7827,-0.7812,-0.7786,-0.7754,-0.7739,-0.7742,-0.7693,-0.7706,-0.7705,-0.7703,-0.7684,-0.768,-0.7677,-0.7718,-0.7719,-0.7719,0,0,-0.8007,-0.7988,-0.7963,-0.7944,-0.7915,-0.7901,-0.7895,-0.7865,-0.7854,-0.7823,-0.7815,-0.7794,-0.7753,-0.7734,-0.7719,-0.7691,-0.7686,-0.7684,-0.7674,-0.7656,-0.7653,-0.765,-0.7639,-0.7635,-0.7681,-0.7681,-0.7681,0,-0.8006,-0.7967,-0.7951,-0.7925,-0.7908,-0.7898,-0.7872,-0.7855,-0.7821,-0.7809,-0.7813,-0.776,-0.7742,-0.7705,-0.7698,-0.7687,-0.7679,-0.7687,-0.7654,-0.7651,-0.7649,-0.7638,-0.7634,-0.7681,-0.7681,-0.7681,-0.7681,0,-0.7966,-0.794,-0.7923,-0.7889,-0.787,-0.7845,-0.7825,-0.7808,-0.78,-0.7785,-0.7753,-0.7731,-0.7702,-0.7693,-0.7686,-0.7655,-0.7657,-0.7658,-0.7663,-0.7645,-0.7635,-0.7631,-0.7681,-0.7681,-0.7681,-0.7681,0,0,-0.7949,-0.7905,-0.7899,-0.7883,-0.785,-0.783,-0.7804,-0.7775,-0.776,-0.7737,-0.7715,-0.768,-0.768,-0.7663,-0.7653,-0.7638,-0.7615,-0.764,-0.7639,-0.7635,-0.7579,-0.7578,-0.7573,-0.7612,-0.7611,-0.7611,-0.7581,0,-0.7924,-0.7875,-0.786,-0.782,-0.7795,-0.7784,-0.7762,-0.774,-0.7725,-0.7703,-0.7687,-0.7662,-0.7664,-0.7654,-0.7638,-0.7621,-0.7603,-0.7623,-0.7591,-0.759,-0.7597,-0.7568,-0.7567,-0.754,-0.7577,-0.7576,-0.7575,0,-0.7887,-0.7862,-0.7819,-0.7788,-0.7777,-0.7757,-0.7728,-0.7707,-0.7681,-0.7672,-0.7653,-0.7644,-0.7617,-0.7625,-0.7588,-0.7602,-0.7588,-0.7578,-0.7576,-0.7572,-0.7581,-0.7562,-0.7531,-0.7526,-0.7569,-0.757,-0.757,0,-0.7878,-0.7833,-0.7801,-0.7788,-0.7751,-0.7737,-0.7722,-0.7697,-0.768,-0.7655,-0.7644,-0.7618,-0.7603,-0.7582,-0.7567,-0.7574,-0.753,-0.7537,-0.7522,-0.7522,-0.7512,-0.7513,-0.7477,-0.7505,-0.7505,-0.7505,-0.7505,0,-0.785,-0.7825,-0.7796,-0.7777,-0.7747,-0.773,-0.7701,-0.7685,-0.7663,-0.7641,-0.7631,-0.761,-0.7591,-0.7568,-0.7556,-0.7526,-0.752,-0.7512,-0.7509,-0.7512,-0.7513,-0.7502,-0.7503,-0.7504,-0.7504,-0.7505,-0.7505,0,-0.7835,-0.7815,-0.7779,-0.7747,-0.7739,-0.7718,-0.7691,-0.7672,-0.7657,-0.7629,-0.7621,-0.7598,-0.757,-0.7552,-0.7518,-0.751,-0.7477,-0.7475,-0.7485,-0.7483,-0.7468,-0.7469,-0.7423,-0.7416,-0.745,-0.7449,-0.7449,0,-0.7818,-0.7798,-0.7763,-0.7746,-0.773,-0.7704,-0.7686,-0.7668,-0.765,-0.7619,-0.7604,-0.7575,-0.7551,-0.7507,-0.7488,-0.7461,-0.7458,-0.7444,-0.7454,-0.7457,-0.7456,-0.7457,-0.7455,-0.7442,-0.7442,-0.7441,-0.7441,0,-0.7791,-0.7781,-0.7755,-0.7725,-0.7704,-0.768,-0.7656,-0.7643,-0.7621,-0.7602,-0.7572,-0.7554,-0.7517,-0.7489,-0.746,-0.7445,-0.7439,-0.7438,-0.7433,-0.7435,-0.7442,-0.7437,-0.7479,-0.7439,-0.7439,-0.7439,-0.744,-0.744,-0.7773,-0.7754,-0.7726,-0.7697,-0.7677,-0.7654,-0.7634,-0.7616,-0.7591,-0.7558,-0.755,-0.7519,-0.7494,-0.7454,-0.7439,-0.7415,-0.7417,-0.741,-0.7408,-0.7406,-0.7405,-0.7446,-0.741,-0.741,-0.741,-0.741,-0.741,0,-0.7744,-0.7725,-0.7699,-0.7665,-0.7642,-0.7637,-0.761,-0.7592,-0.7564,-0.754,-0.7516,-0.7483,-0.7455,-0.7433,-0.7404,-0.7389,-0.7386,-0.7382,-0.7383,-0.7379,-0.7405,-0.7412,-0.7386,-0.7386,-0.7386,-0.7386,-0.7386,-0.7386,-0.7727,-0.7693,-0.768,-0.7637,-0.7618,-0.7587,-0.7572,-0.7551,-0.7532,-0.7494,-0.747,-0.7455,-0.7432,-0.7402,-0.7376,-0.737,-0.736,-0.7357,-0.7351,-0.7375,-0.7378,-0.738,-0.7386,-0.7355,-0.7355,-0.7326,-0.7326,-0.7326]},{"header":{"parameterUnit":"m.s-1","parameterCategory":1,"la1":30.2991,"la2":30.254,"lo1":-89.0895,"lo2":-89.0444,"dy":0.0017,"dx":0.0017,"nx":28,"ny":28,"refTime":"2025-04-13T21:00:00:Z","depth":0,"parameterNumber":3,"parameterNumberName":"V-component_of_WINDS"},"data":[0,0,0,0,0,0,0,0,0,0,0,0,0,0,0,0,0,0,0,0,0,0,0,0,0,0,0,0,0,0,0,0,0,0,0,0,0,0,0,0,0,0,0,0,0,0,0,0,0,0,0,0,0,0,0,0,0,0,3.9789,3.9789,0,3.9774,3.9774,3.9774,3.9781,3.9782,3.9782,3.9782,3.9765,3.9764,3.9763,0,0,0,0,0,0,0,0,0,0,0,0,0,3.982,3.982,3.9789,3.9789,3.9788,3.9774,3.9774,3.9774,3.9781,3.9782,3.9782,3.9783,3.9765,3.9764,3.9763,0,0,0,0,0,0,0,0,0,0,0,0,0,3.9806,3.982,3.9789,3.979,3.979,3.9774,3.9774,3.9774,3.9781,3.9782,3.9782,3.9783,3.9765,3.9764,3.9763,3.9743,0,0,3.9759,3.9758,0,0,0,0,0,0,0,0,3.9807,3.9805,3.979,3.979,3.979,3.978,3.9779,3.9763,3.9781,3.9785,3.9783,3.9783,3.9769,3.9768,3.9764,3.9742,3.9742,3.9759,3.9758,3.9758,3.9757,0,0,0,0,0,0,0,3.9808,3.9806,3.9783,3.979,3.979,3.9791,3.979,3.9776,3.9774,3.9784,3.9785,3.9783,3.9769,3.9765,3.9763,3.9741,3.9759,3.9758,3.9757,3.9757,3.9705,3.9704,0,0,0,0,0,0,3.9809,3.9807,3.9783,3.9782,3.98,3.979,3.9789,3.9783,3.9774,3.9773,3.9783,3.9784,3.9767,3.9765,3.9763,3.974,3.9758,3.9756,3.9756,3.9705,3.9705,3.9704,0,0,0,0,0,0,3.981,3.9807,3.9784,3.9795,3.9792,3.9789,3.9782,3.9782,3.9778,3.9773,3.9772,3.9779,3.9767,3.9764,3.9749,3.974,3.9756,3.9755,3.9706,3.9705,3.9704,3.9694,0,0,0,0,0,0,3.9811,3.9807,3.98,3.9795,3.9791,3.9771,3.9782,3.9782,3.9776,3.9777,3.9769,3.9768,3.9767,3.975,3.9747,3.9738,3.9754,3.9707,3.9706,3.9705,3.9695,3.9693,3.9691,0,0,0,0,0,3.9812,3.9797,3.98,3.9797,3.9783,3.977,3.9768,3.9769,3.9775,3.9768,3.9765,3.9768,3.9741,3.9749,3.9745,3.9736,3.9707,3.9706,3.9705,3.9696,3.9694,3.9691,0,0,0,0,0,0,3.9801,3.9796,3.9799,3.9783,3.9777,3.9772,3.9762,3.9766,3.9757,3.9758,3.9758,3.9756,3.974,3.9736,3.9745,3.9717,3.9725,3.9723,3.972,3.9717,3.9715,3.9717,3.9753,0,0,0,0,0,3.9797,3.9788,3.9784,3.9769,3.9767,3.9765,3.9759,3.9761,3.9754,3.9751,3.9747,3.974,3.973,3.9723,3.9714,3.9695,3.9694,3.9687,3.9684,3.9683,3.9681,3.9672,3.9669,3.9699,3.9699,3.9699,0,0,3.9787,3.9784,3.9778,3.9767,3.9763,3.9753,3.9763,3.9752,3.9745,3.9749,3.9735,3.9731,3.9724,3.9707,3.9699,3.9703,3.9672,3.9681,3.968,3.9679,3.967,3.9667,3.9664,3.9698,3.9699,3.9699,0,0,3.9766,3.9762,3.975,3.9746,3.974,3.9739,3.9736,3.9731,3.9729,3.9715,3.9719,3.9709,3.9692,3.9687,3.9682,3.9659,3.9662,3.9656,3.9645,3.9636,3.9634,3.9631,3.9624,3.9622,3.9654,3.9654,3.9654,0,3.9755,3.9741,3.9743,3.9733,3.9728,3.9733,3.9721,3.9716,3.9707,3.9703,3.9708,3.9688,3.9682,3.9665,3.966,3.9655,3.9652,3.9657,3.9634,3.9632,3.963,3.9623,3.962,3.9654,3.9654,3.9654,3.9654,0,3.9729,3.9719,3.971,3.9703,3.9697,3.9685,3.9685,3.9679,3.968,3.9679,3.9664,3.9659,3.9649,3.9644,3.9645,3.9627,3.963,3.9634,3.9643,3.9626,3.962,3.9617,3.9653,3.9653,3.9653,3.9653,0,0,3.9699,3.9694,3.969,3.9688,3.9682,3.9674,3.9663,3.9654,3.9649,3.9643,3.9633,3.9619,3.9624,3.9618,3.9618,3.961,3.9594,3.9616,3.9616,3.9613,3.9574,3.9572,3.9568,3.9596,3.9595,3.9595,3.9575,0,3.9678,3.966,3.9661,3.9644,3.9635,3.9641,3.9631,3.9626,3.9625,3.9617,3.9615,3.9605,3.9611,3.9608,3.96,3.9598,3.9586,3.9599,3.9587,3.9587,3.959,3.9565,3.9562,3.9543,3.9573,3.9572,3.9572,0,3.965,3.9645,3.9627,3.9623,3.962,3.9611,3.9604,3.9596,3.9591,3.959,3.9585,3.9587,3.9575,3.9584,3.9568,3.9577,3.9572,3.957,3.957,3.9569,3.9579,3.9564,3.9537,3.9535,3.9568,3.9568,3.9568,0,3.9632,3.9619,3.9607,3.9604,3.96,3.9594,3.9591,3.9587,3.9582,3.9575,3.9572,3.9564,3.9559,3.9552,3.9552,3.9558,3.9536,3.9545,3.9536,3.9536,3.9531,3.9531,3.9504,3.9527,3.9527,3.9527,3.9527,0,3.9608,3.9597,3.9599,3.9591,3.9579,3.9581,3.9569,3.9567,3.9563,3.9555,3.9559,3.9551,3.9551,3.9543,3.9542,3.953,3.9527,3.9527,3.9527,3.9527,3.9527,3.9524,3.9525,3.9526,3.9526,3.9527,3.9527,0,3.9585,3.9586,3.9573,3.9571,3.957,3.9561,3.9558,3.9551,3.955,3.954,3.9538,3.9536,3.9527,3.9527,3.9516,3.9515,3.9501,3.9502,3.9503,3.9503,3.9494,3.9495,3.9464,3.946,3.9486,3.9485,3.9485,0,3.957,3.9562,3.9559,3.9555,3.9552,3.9545,3.954,3.9542,3.9537,3.9531,3.9525,3.9516,3.951,3.9495,3.9492,3.9484,3.9486,3.9475,3.9484,3.9485,3.9486,3.9487,3.9487,3.9473,3.9473,3.9473,3.9473,0,3.9544,3.9545,3.9539,3.9533,3.9528,3.9523,3.9519,3.9515,3.9516,3.951,3.9502,3.9497,3.9487,3.9478,3.947,3.9467,3.947,3.947,3.9468,3.9468,3.9469,3.9469,3.9499,3.9471,3.9471,3.9471,3.9471,3.9471,3.9525,3.9519,3.9516,3.9509,3.9506,3.9502,3.9496,3.9495,3.9488,3.9481,3.9482,3.9473,3.9468,3.9459,3.9455,3.9447,3.9451,3.9447,3.9446,3.9445,3.9445,3.947,3.9446,3.9446,3.9446,3.9446,3.9446,0,3.95,3.9499,3.9492,3.9487,3.9482,3.9486,3.9482,3.9477,3.9469,3.9465,3.9459,3.9449,3.9442,3.9439,3.9432,3.9426,3.9427,3.9424,3.9425,3.9424,3.9442,3.9445,3.9423,3.9423,3.9423,3.9423,3.9423,3.9423,3.9486,3.9476,3.9477,3.9465,3.9463,3.9455,3.9452,3.9449,3.9446,3.9436,3.943,3.9429,3.9425,3.9418,3.9411,3.941,3.9407,3.9404,3.9404,3.942,3.9423,3.9425,3.9428,3.9403,3.9403,3.9387,3.9387,3.9387]}]]